sat.trackr.live / text

‹ back to catalog

KUIPER-00507

NORAD 68887 · 2026-095Z

PAYLOAD ACTIVE UNKNOWN

§ Identity

Operator
Country
US
Launch date
2026-04-28
Launch site
AFETR
Launch vehicle
Mass (kg)
RCS (m²)

External: N2YO · Heavens-Above · Gunter

§ Orbital elements

Epoch: 2026-05-24T20:38:55.639680Z

Period
93.66 min
Inclination
51.8849°
Eccentricity
0.0000895
Mean motion
15.37407443 rev/d
Perigee alt
453.2 km
Apogee alt
454.4 km
Semi-major
6,831.9 km
B*
-3.3582e-3
RAAN
354.9534°
Arg perigee
109.4963°
Mean anomaly
250.6120°
Rev number
414

§ Raw data

KUIPER-005071 68887U 26095Z   26144.86036620 -.00123454  00000+0 -33582-2 0  99902 68887  51.8849 354.9534 0000895 109.4963 250.6120 15.37407443  4144

JSON: /api/v1/satellites/68887 · /tle

For live sub-satellite position, see the globe view (requires WebGL).

§ Visibility from observer

Set your observer location to see the next 7 days of passes ≥ 10°. The values pass through the URL so the page stays shareable.

No JS? Fill the form by hand. The geolocation button needs JavaScript.